Temperature
3 3 2 2 2 2 2 2 2 2 3 2 2 2 2 2 2 2 2 2 2 2 2 2 2 2 2 2 2 2 2 2 2 2 2 3 3 3 3 3 3 3 4
2 2 2 2 2 2 2 2 2 2 2 2 2 2 2 2 2 2 2 2 2 2 2 2 2 2 2 2 2 2 2 2 2 2 2 2 2 2 3 3 3 3 3
2 2 2 2 2 2 2 2 2 2 2 2 2 2 2 1 1 1 1 1 1 1 1 1 1 1 1 1 1 1 1 1 1 1 1 1 2 2 2 2 2 2 2
1 1 2 2 2 1 1 1 1 2 2 2 2 1 1 1 1 1 1 1 1 1 1 1 1 1 1 1 1 1 1 1 1 1 1 1 1 2 2 2 2 2 2
1 1 1 1 1 1 1 1 1 1 1 1 1 1 1 1 1 1 0 0 0 0 0 0 0 0 0 0 0 1 1 1 0 0 0 1 1 1 1 1 1 1 1
1 1 1 1 1 1 1 1 1 1 1 1 1 0 0 0 0 0 0 -0 -0 -0 -0 -0 -0 -1 -0 -0 0 0 0 0 0 0 0 0 1 1 0 0 0 0 -0
0 0 0 1 1 0 0 0 0 0 0 0 0 0 -0 -0 -0 -0 -0 -0 -1 -1 -1 -1 -1 -1 -1 -1 -0 -0 -0 0 0 0 0 0 0 0 0 -0 -0 -0 -0
0 0 0 0 0 0 0 -0 -0 -0 -0 -0 -0 -0 -1 -1 -1 -0 -0 -1 -1 -1 -1 -1 -1 -1 -1 -1 -1 -1 -0 -0 -0 -0 -0 -0 -0 -0 -0 -0 -1 -1 -1
-0 -0 -0 -0 -0 -0 -0 -0 -0 -1 -1 -1 -1 -1 -1 -1 -1 -1 -1 -1 -1 -1 -1 -1 -1 -1 -1 -1 -1 -1 -1 -1 -0 -0 -0 -0 -0 -0 -0 -1 -1 -1 -1
-0 -0 -0 -0 -0 -0 -0 -1 -1 -1 -1 -1 -1 -1 -1 -1 -1 -1 -1 -1 -1 -2 -2 -2 -2 -2 -2 -1 -1 -1 -1 -1 -1 -1 -1 -1 -1 -1 -1 -1 -1 -1 -2
-0 -0 -1 -0 -0 -0 -1 -1 -1 -1 -2 -2 -2 -2 -2 -2 -2 -2 -2 -2 -2 -2 -2 -2 -2 -2 -2 -2 -1 -2 -2 -1 -1 -1 -1 -1 -1 -1 -1 -1 -1 -2 -2
-1 -1 -1 -1 -1 -1 -1 -1 -2 -2 -2 -2 -2 -2 -2 -2 -2 -2 -2 -2 -2 -2 -2 -2 -2 -2 -2 -2 -2 -2 -2 -2 -2 -2 -2 -2 -1 -1 -2 -2 -2 -2 -2
-1 -1 -1 -1 -1 -1 -1 -2 -2 -2 -2 -3 -3 -3 -3 -3 -3 -2 -2 -2 -2 -2 -2 -2 -2 -2 -2 -2 -2 -2 -2 -2 -2 -2 -2 -2 -2 -2 -2 -2 -2 -2 -2
-1 -1 -1 -1 -1 -1 -2 -2 -2 -3 -3 -3 -3 -3 -3 -3 -3 -3 -3 -3 -3 -3 -3 -3 -3 -2 -2 -2 -3 -3 -3 -3 -3 -3 -3 -2 -2 -2 -2 -2 -2 -2 -2
-1 -1 -1 -1 -1 -2 -2 -2 -3 -3 -3 -3 -3 -3 -4 -4 -4 -3 -3 -3 -3 -3 -3 -3 -3 -3 -3 -3 -3 -3 -3 -3 -3 -3 -3 -3 -3 -3 -3 -3 -3 -3 -3
-1 -1 -2 -2 -2 -2 -2 -3 -3 -3 -3 -3 -3 -4 -4 -4 -4 -4 -3 -3 -3 -3 -3 -3 -3 -3 -3 -3 -3 -3 -3 -3 -3 -3 -3 -3 -3 -3 -3 -3 -3 -3 -3
-1 -2 -2 -2 -2 -3 -3 -3 -3 -3 -3 -4 -4 -4 -4 -4 -4 -4 -4 -4 -4 -4 -4 -3 -3 -3 -3 -3 -3 -3 -4 -4 -4 -4 -4 -4 -4 -3 -4 -3 -4 -4 -4
-2 -2 -2 -2 -3 -3 -3 -3 -3 -4 -4 -4 -4 -4 -4 -4 -4 -4 -4 -4 -4 -4 -4 -4 -4 -4 -4 -4 -4 -4 -4 -4 -4 -4 -4 -4 -4 -4 -4 -4 -4 -4 -4
-2 -2 -2 -3 -3 -3 -3 -4 -4 -4 -4 -4 -4 -4 -4 -5 -5 -5 -4 -4 -4 -4 -4 -4 -4 -4 -4 -4 -4 -4 -4 -4 -4 -4 -4 -4 -4 -4 -4 -4 -4 -4 -4
-2 -2 -3 -3 -3 -3 -3 -4 -4 -4 -4 -5 -5 -5 -5 -5 -5 -5 -5 -5 -5 -5 -4 -4 -4 -4 -4 -4 -4 -4 -4 -4 -4 -4 -4 -4 -4 -4 -4 -4 -5 -4 -4
-3 -3 -3 -3 -3 -3 -4 -4 -4 -4 -5 -5 -5 -5 -5 -5 -5 -5 -5 -5 -5 -5 -5 -5 -5 -5 -5 -5 -4 -4 -4 -4 -4 -5 -5 -4 -4 -4 -4 -5 -5 -4 -4
-3 -3 -3 -3 -3 -4 -4 -4 -4 -4 -5 -5 -5 -5 -5 -5 -5 -5 -5 -5 -5 -5 -5 -5 -5 -5 -5 -5 -5 -5 -5 -5 -5 -5 -5 -5 -5 -5 -5 -5 -5 -5 -5
-3 -3 -3 -4 -4 -4 -4 -5 -5 -5 -5 -5 -5 -5 -5 -5 -5 -5 -5 -5 -5 -5 -5 -5 -5 -5 -5 -5 -5 -5 -5 -5 -5 -5 -5 -5 -5 -5 -5 -5 -5 -5 -5
-3 -4 -4 -4 -4 -4 -5 -5 -5 -5 -5 -5 -5 -5 -5 -5 -5 -5 -5 -5 -5 -5 -5 -5 -5 -5 -5 -5 -5 -5 -5 -5 -5 -5 -5 -5 -5 -5 -5 -5 -5 -5 -5
-4 -4 -4 -4 -4 -5 -5 -5 -5 -5 -5 -5 -6 -6 -6 -6 -6 -5 -5 -5 -5 -5 -5 -5 -5 -5 -5 -5 -5 -5 -5 -5 -5 -5 -5 -5 -5 -5 -5 -5 -5 -6 -6
-4 -4 -4 -5 -5 -5 -5 -5 -5 -6 -6 -6 -6 -6 -6 -6 -6 -6 -6 -5 -5 -5 -5 -5 -6 -6 -6 -6 -6 -6 -6 -6 -6 -6 -6 -6 -5 -5 -5 -6 -6 -6 -6
Wind_Speed
3 4 4 4 4 4 4 5 5 4 4 5 4 4 5 5 5 4 4 4 5 5 4 5 5 5 4 4 4 4 4 4 6 6 5 5 5 4 4 4 4 4 4
3 4 4 4 4 4 4 5 5 5 4 5 4 5 5 5 5 5 5 5 5 5 5 5 5 4 5 4 4 4 4 5 5 6 5 5 5 4 3 3 3 4 3
3 4 4 4 4 4 5 4 5 4 4 4 4 5 5 5 5 5 5 5 5 5 5 5 5 5 5 4 4 4 4 4 4 5 5 4 4 3 3 3 4 3 4
3 4 4 4 4 4 4 4 4 4 4 4 4 4 4 4 4 4 4 5 5 5 4 5 5 5 5 5 4 4 4 4 3 4 4 4 3 3 2 2 3 3 3
3 3 4 4 4 4 4 4 4 4 4 4 4 4 4 4 4 4 4 5 5 4 4 5 4 4 5 4 4 4 4 3 3 3 4 3 3 2 2 2 3 3 4
4 4 3 3 3 4 4 4 4 3 3 3 4 4 4 3 4 5 5 5 4 5 4 4 4 4 4 3 4 4 5 5 4 4 4 4 3 2 2 2 2 2 3
4 4 3 3 4 4 3 3 3 3 3 3 3 3 3 4 4 5 5 4 4 4 4 4 3 3 4 3 3 4 4 4 5 5 5 4 4 3 2 2 2 3 3
3 3 4 4 4 4 3 3 3 3 3 3 3 3 3 3 4 4 4 4 3 4 4 4 4 3 3 3 3 3 3 3 3 4 4 4 3 3 3 2 2 2 3
4 4 4 4 4 3 3 3 3 3 3 3 3 3 3 3 3 2 3 2 3 3 3 3 3 4 3 3 3 3 3 2 2 2 3 2 1 1 1 1 1 1 3
4 4 4 4 4 4 3 3 3 2 2 2 2 2 2 3 3 2 3 2 2 2 2 2 3 3 3 2 3 3 3 3 2 2 1 0 0 0 1 2 2 2 2
4 4 4 4 4 4 3 3 3 2 2 2 2 2 2 2 2 2 3 2 2 2 2 2 2 2 2 2 2 2 2 1 1 1 1 0 1 1 1 2 2 2 2
4 3 3 4 3 2 3 2 3 2 2 2 1 2 2 2 2 2 3 3 2 2 2 2 2 1 1 1 1 1 0 0 1 1 1 1 1 2 2 2 3 3 3
3 3 3 3 3 3 3 3 2 2 2 2 2 2 2 2 2 3 2 2 3 2 2 1 1 1 1 1 0 0 0 1 1 1 1 1 2 2 2 2 3 3 4
3 3 2 2 2 2 2 2 3 3 2 2 2 2 2 2 2 2 2 2 2 1 1 1 1 1 1 0 0 1 1 1 1 1 1 1 1 1 1 2 2 2 3
3 2 2 2 2 2 2 2 3 3 3 3 3 3 3 3 3 3 2 2 2 2 1 1 1 1 1 1 1 1 1 1 1 1 1 1 1 1 2 2 2 2 2
3 2 2 2 1 1 1 1 2 3 3 4 4 3 3 4 4 4 3 3 3 3 2 2 2 2 2 2 2 1 1 1 1 1 1 1 1 1 1 2 2 1 1
3 2 2 2 2 2 2 2 2 2 3 3 3 3 3 3 3 3 3 2 3 4 3 2 2 2 2 2 2 2 2 1 1 1 1 1 0 0 0 1 1 1 1
3 3 2 2 2 2 2 2 2 2 2 2 2 3 2 2 3 2 2 2 2 2 2 2 2 2 2 2 2 2 2 1 1 1 1 1 1 1 0 1 1 0 1
2 2 2 2 2 2 2 2 2 2 2 2 2 2 2 2 2 2 2 2 2 2 2 2 2 2 2 2 2 2 1 1 1 1 1 1 1 1 0 0 0 0 1
2 2 2 2 2 2 2 2 2 2 2 2 2 2 1 1 1 2 2 2 2 2 2 2 2 2 2 2 2 2 2 2 2 1 1 1 1 1 1 1 0 0 0
2 2 2 1 1 1 1 2 2 2 2 2 2 2 2 2 2 2 2 2 2 2 2 2 2 1 1 1 2 2 2 2 2 2 1 1 1 1 1 0 0 0 0
1 1 1 2 1 1 1 1 1 2 2 2 2 2 2 2 2 2 2 2 2 1 1 1 1 1 2 2 2 2 2 2 2 2 2 1 1 1 1 1 0 0 1
2 1 1 1 1 2 1 1 1 1 1 2 2 1 1 2 2 2 2 1 1 1 1 1 1 1 1 1 2 2 2 2 2 2 2 2 2 1 1 1 1 1 1
2 2 2 2 1 2 2 2 1 1 1 1 1 1 1 1 1 1 1 1 1 1 1 1 1 1 1 1 1 2 2 2 3 3 3 3 2 2 2 2 1 1 1
2 2 2 2 2 2 2 2 2 2 2 1 1 1 1 1 1 1 1 1 1 1 1 1 1 1 2 2 2 2 2 2 3 3 3 3 3 2 2 2 1 1 1
2 2 2 2 2 2 2 2 2 2 2 2 2 2 2 1 1 1 1 1 1 1 1 1 1 1 2 2 3 3 2 2 3 2 3 3 2 2 2 2 2 1 1
Wind_Direction
268 265 265 263 263 263 263 265 267 267 267 264 260 252 249 246 247 242 246 245 245 249 251 252 257 260 254 255 252 249 245 249 261 277 282 289 282 285 292 295 301 300 300
272 269 267 266 263 263 267 269 268 265 263 261 255 249 247 245 245 240 242 244 246 249 250 253 256 253 250 254 250 248 247 249 253 269 280 286 286 288 294 299 310 308 309
269 266 266 265 266 268 271 270 267 264 265 264 257 249 246 244 244 239 237 242 249 252 252 251 252 247 245 249 251 253 252 255 258 263 275 287 289 293 306 314 315 312 313
269 264 262 265 268 271 272 272 272 269 265 261 256 250 244 241 241 236 234 238 248 254 254 256 255 251 249 249 251 252 251 255 255 256 268 281 283 297 299 312 324 329 326
267 270 273 278 281 280 277 274 272 270 267 262 254 249 245 239 240 231 230 233 239 246 251 255 254 258 266 259 253 247 245 244 247 247 257 270 276 289 297 316 312 327 328
276 277 280 276 279 279 278 276 273 271 270 264 255 249 248 245 246 237 233 227 234 241 249 258 261 255 259 266 276 274 262 248 244 241 251 252 263 284 299 299 304 314 316
276 282 283 271 264 268 269 266 267 266 265 263 258 253 255 253 249 234 225 229 237 241 245 250 255 256 258 250 255 267 276 281 269 248 244 254 257 266 269 270 279 291 296
276 280 278 267 258 258 256 259 265 267 265 264 265 263 260 256 246 234 223 226 233 242 247 248 251 255 253 251 257 258 269 277 272 259 255 265 269 260 250 248 267 298 312
276 276 272 262 254 251 249 252 258 259 262 267 266 267 268 266 249 237 231 228 229 242 253 255 254 249 251 252 253 250 262 277 296 292 285 281 273 273 274 214 247 276 303
277 277 275 265 252 245 245 248 254 253 256 262 264 271 276 274 253 239 242 233 230 234 237 245 257 260 255 252 251 244 249 264 276 304 309 344 186 242 294 258 235 244 287
281 282 283 273 257 246 240 242 242 240 241 251 268 283 282 278 255 245 238 234 233 231 229 242 257 254 254 265 266 261 261 276 255 269 276 329 346 347 341 335 312 260 259
279 278 280 275 259 242 227 227 229 225 227 240 266 288 288 277 276 263 248 234 240 229 232 237 245 245 247 272 261 318 359 287 262 265 286 318 338 346 346 346 349 345 328
273 272 275 274 250 226 217 215 214 215 224 238 244 261 279 285 281 283 269 242 236 241 235 229 241 247 250 242 230 76 190 251 273 268 274 315 334 344 347 358 11 22 17
268 272 271 269 256 220 217 213 212 213 219 228 241 251 262 265 270 271 261 252 234 235 237 216 211 205 220 217 229 234 254 274 261 263 292 321 341 348 350 350 356 14 13
260 263 264 261 260 232 220 224 225 226 231 232 240 243 242 251 259 263 254 243 231 229 222 218 213 224 223 220 243 269 268 270 270 275 269 300 334 347 353 359 7 6 356
247 252 255 256 255 247 240 252 242 245 248 246 248 256 260 265 267 255 252 254 234 213 207 206 215 225 224 225 233 255 258 246 260 250 243 251 264 290 346 356 15 19 13
248 250 249 249 250 248 236 240 270 266 238 236 246 255 266 256 249 246 245 242 231 217 219 218 224 226 227 226 229 242 248 243 237 227 227 228 239 268 328 351 7 17 7
247 245 239 238 242 243 239 238 240 246 257 269 258 258 265 248 237 236 231 226 243 237 237 232 230 228 226 228 229 234 230 210 204 210 206 211 214 213 272 338 326 343 353
241 243 239 239 237 238 237 236 235 240 247 258 268 258 254 242 228 222 212 232 244 253 252 248 243 236 231 229 227 223 217 208 207 207 202 210 219 210 212 317 310 315 342
241 245 250 240 235 235 229 229 226 231 241 244 246 254 259 257 246 237 227 236 242 255 256 253 249 239 233 224 213 206 202 201 201 205 212 217 224 217 202 222 232 217 329
236 234 235 240 236 234 232 226 223 220 232 247 253 257 262 247 247 249 242 239 238 241 248 251 248 238 235 222 209 198 197 198 199 199 206 210 203 203 207 203 262 183 92
225 232 227 230 233 232 240 236 234 233 236 249 265 264 260 262 257 251 248 254 258 255 249 241 241 237 229 223 209 200 200 201 200 197 194 193 187 187 181 168 148 144 140
209 209 215 227 233 230 238 243 243 247 253 248 252 261 264 265 268 266 265 267 257 258 254 240 233 229 218 222 225 215 209 211 212 205 195 189 189 190 184 175 174 193 188
205 207 211 216 221 224 232 241 245 250 255 264 268 271 277 282 288 288 284 287 286 278 268 251 234 208 195 207 211 217 218 220 214 206 202 191 190 189 184 181 189 201 188
208 209 211 212 213 219 224 233 237 241 250 259 268 273 282 289 291 293 295 290 289 277 269 251 234 214 200 205 208 206 200 209 212 208 198 184 178 180 178 178 179 191 182
210 212 212 212 213 216 219 226 233 239 245 255 261 265 269 274 277 277 278 273 276 279 269 250 233 226 209 204 199 200 206 199 193 191 177 171 171 174 173 177 186 189 180
Height
1453 1453 1452 1452 1451 1450 1449 1448 1447 1447 1446 1445 1445 1445 1445 1445 1445 1445 1444 1445 1445 1444 1444 1444 1443 1443 1443 1443 1443 1443 1443 1443 1441 1440 1440 1439 1439 1438 1437 1437 1436 1435 1434
1450 1449 1449 1448 1447 1447 1446 1445 1444 1443 1443 1442 1442 1441 1441 1441 1441 1441 1441 1441 1441 1441 1440 1440 1440 1440 1439 1440 1439 1439 1439 1439 1438 1437 1436 1436 1435 1435 1434 1433 1433 1432 1431
1447 1446 1445 1444 1444 1443 1442 1441 1441 1440 1439 1439 1438 1438 1437 1437 1437 1437 1438 1438 1438 1437 1437 1437 1436 1436 1436 1436 1436 1436 1436 1435 1435 1434 1433 1432 1432 1432 1431 1430 1429 1428 1428
1444 1443 1442 1441 1440 1440 1439 1438 1437 1436 1436 1435 1434 1434 1434 1433 1433 1434 1434 1434 1434 1434 1434 1433 1433 1432 1432 1432 1432 1432 1432 1432 1432 1431 1430 1430 1429 1428 1428 1427 1426 1425 1424
1440 1439 1438 1437 1437 1436 1435 1434 1433 1433 1432 1432 1431 1430 1430 1430 1430 1430 1430 1431 1430 1430 1430 1430 1429 1429 1429 1429 1429 1429 1429 1429 1428 1428 1428 1427 1426 1425 1425 1424 1423 1422 1421
1436 1435 1434 1434 1433 1432 1431 1431 1430 1429 1429 1428 1427 1426 1426 1426 1426 1427 1427 1427 1427 1427 1427 1426 1426 1426 1425 1425 1426 1426 1426 1426 1425 1425 1425 1424 1423 1423 1422 1422 1421 1420 1419
1434 1432 1431 1431 1430 1429 1428 1427 1427 1426 1425 1424 1424 1423 1423 1423 1423 1423 1424 1424 1424 1424 1424 1423 1423 1422 1422 1422 1422 1422 1422 1422 1422 1423 1422 1422 1421 1421 1420 1419 1419 1419 1418
1430 1429 1428 1427 1426 1426 1425 1425 1424 1423 1422 1421 1421 1421 1420 1420 1420 1420 1421 1421 1421 1421 1421 1421 1420 1420 1420 1420 1419 1419 1418 1418 1419 1419 1419 1419 1419 1419 1418 1418 1417 1416 1415
1427 1426 1425 1424 1423 1423 1422 1422 1421 1421 1420 1419 1419 1418 1418 1418 1418 1418 1418 1418 1418 1418 1418 1418 1418 1418 1417 1417 1417 1416 1415 1416 1416 1416 1416 1416 1416 1416 1415 1415 1414 1413 1412
1424 1423 1422 1421 1421 1420 1419 1419 1418 1418 1417 1417 1417 1416 1416 1416 1415 1415 1415 1415 1415 1415 1415 1415 1415 1415 1415 1414 1414 1414 1413 1413 1413 1413 1414 1413 1413 1413 1413 1413 1412 1411 1410
1421 1420 1419 1418 1418 1417 1416 1416 1416 1415 1415 1415 1414 1414 1414 1413 1413 1413 1413 1413 1412 1413 1413 1413 1413 1412 1412 1412 1412 1412 1411 1411 1411 1411 1411 1411 1411 1411 1411 1410 1410 1409 1408
1418 1417 1416 1415 1415 1414 1413 1413 1413 1413 1412 1412 1412 1411 1411 1411 1411 1411 1411 1411 1411 1411 1411 1411 1411 1410 1410 1410 1410 1409 1409 1409 1409 1409 1409 1409 1408 1408 1408 1408 1407 1407 1406
1415 1414 1413 1412 1411 1411 1410 1410 1410 1410 1410 1409 1409 1409 1409 1409 1408 1408 1409 1409 1409 1409 1409 1409 1409 1409 1408 1408 1408 1408 1407 1407 1407 1407 1407 1407 1407 1407 1406 1406 1405 1405 1404
1412 1411 1410 1409 1408 1408 1408 1407 1407 1407 1407 1407 1406 1406 1406 1406 1406 1406 1406 1406 1406 1407 1407 1407 1407 1406 1406 1406 1406 1406 1406 1406 1406 1406 1406 1405 1405 1405 1404 1404 1403 1403 1402
1409 1408 1407 1407 1406 1405 1405 1405 1405 1404 1405 1405 1404 1404 1404 1403 1403 1403 1403 1403 1404 1404 1404 1404 1404 1404 1404 1404 1404 1404 1404 1404 1404 1404 1404 1404 1404 1403 1403 1402 1402 1402 1401
1406 1405 1405 1404 1403 1403 1402 1402 1402 1402 1402 1402 1402 1402 1401 1401 1401 1401 1401 1401 1402 1402 1403 1402 1402 1402 1402 1402 1402 1402 1402 1402 1402 1402 1402 1402 1402 1402 1401 1401 1401 1401 1400
1404 1403 1402 1402 1401 1400 1400 1399 1399 1400 1400 1399 1399 1399 1399 1399 1398 1399 1399 1399 1400 1400 1400 1400 1400 1400 1400 1400 1401 1401 1401 1401 1401 1401 1401 1401 1401 1400 1400 1400 1400 1400 1399
1401 1401 1400 1399 1399 1398 1397 1397 1397 1397 1396 1396 1396 1396 1396 1396 1396 1397 1397 1397 1397 1397 1397 1397 1398 1398 1398 1398 1399 1399 1399 1399 1399 1399 1399 1400 1399 1399 1399 1399 1399 1399 1398
1399 1398 1398 1397 1396 1396 1395 1395 1395 1394 1394 1394 1393 1394 1394 1394 1394 1395 1395 1395 1394 1394 1395 1395 1395 1396 1396 1396 1396 1397 1397 1397 1397 1398 1398 1398 1398 1398 1398 1398 1398 1398 1398
1397 1396 1396 1395 1394 1394 1393 1393 1392 1392 1392 1392 1391 1391 1391 1391 1391 1392 1392 1392 1392 1392 1392 1393 1393 1393 1394 1394 1394 1395 1395 1395 1396 1396 1396 1397 1397 1397 1398 1398 1398 1397 1397
1394 1394 1394 1393 1393 1392 1392 1391 1391 1390 1390 1390 1390 1390 1390 1389 1389 1389 1390 1390 1390 1390 1390 1391 1391 1391 1391 1391 1392 1392 1393 1394 1394 1395 1395 1395 1396 1396 1397 1397 1397 1397 1396
1392 1392 1391 1391 1391 1390 1390 1390 1389 1389 1388 1388 1388 1388 1388 1388 1388 1387 1388 1388 1388 1388 1388 1388 1388 1389 1389 1389 1390 1390 1391 1392 1392 1393 1394 1394 1395 1395 1396 1396 1396 1396 1396
1391 1390 1390 1390 1389 1389 1389 1388 1388 1387 1387 1387 1387 1386 1386 1386 1386 1386 1386 1386 1386 1386 1386 1386 1386 1386 1387 1387 1388 1388 1389 1390 1391 1391 1392 1393 1393 1394 1394 1395 1395 1395 1395
1388 1388 1388 1388 1388 1387 1387 1387 1386 1386 1386 1386 1385 1385 1385 1385 1384 1384 1384 1384 1384 1384 1384 1384 1385 1385 1385 1385 1386 1387 1387 1389 1390 1390 1391 1391 1392 1392 1393 1393 1394 1394 1395
1386 1386 1386 1386 1386 1386 1385 1385 1385 1385 1384 1384 1384 1384 1383 1383 1383 1383 1383 1383 1383 1383 1383 1383 1383 1383 1384 1384 1385 1385 1387 1388 1388 1389 1390 1390 1391 1391 1392 1392 1393 1393 1394
1384 1384 1384 1384 1384 1384 1383 1383 1383 1383 1383 1383 1383 1382 1382 1382 1382 1382 1382 1382 1382 1382 1382 1382 1382 1382 1382 1383 1384 1385 1386 1386 1387 1388 1389 1389 1390 1390 1391 1392 1392 1393 1393